Time,TemperatureF,DewpointF,PressureIn,WindDirection,WindDirectionDegrees,WindSpeedMPH,WindSpeedGustMPH,Humidity,HourlyPrecipIn,Conditions,Clouds,dailyrainin,SolarRadiationWatts/m^2,SoftwareType,DateUTC
2013-09-16 00:00:00,42.5,40.9,30.05,NNE,25,0.0,0.0,94,0.00,,,0.09,0,Wunderground v.1.15,2013-09-16 06:00:00,
2013-09-16 00:10:00,42.3,41.0,30.05,NW,323,1.0,3.0,95,0.00,,,0.00,0,Wunderground v.1.15,2013-09-16 06:10:00,
2013-09-16 00:21:00,42.4,41.1,30.05,NW,323,2.0,2.0,95,0.00,,,0.00,0,Wunderground v.1.15,2013-09-16 06:21:00,
2013-09-16 00:30:00,42.4,41.1,30.05,NW,304,2.0,2.0,95,0.00,,,0.00,0,Wunderground v.1.15,2013-09-16 06:30:00,
2013-09-16 00:40:00,42.2,40.9,30.05,NW,304,0.0,2.0,95,0.00,,,0.00,0,Wunderground v.1.15,2013-09-16 06:40:00,
2013-09-16 00:50:00,42.0,40.7,30.04,NW,304,0.0,0.0,95,0.00,,,0.00,0,Wunderground v.1.15,2013-09-16 06:50:00,
2013-09-16 01:01:00,42.0,40.7,30.04,NW,304,0.0,2.0,95,0.00,,,0.00,0,Wunderground v.1.15,2013-09-16 07:01:00,
2013-09-16 01:10:00,42.5,41.2,30.04,West,263,2.0,2.0,95,0.00,,,0.00,0,Wunderground v.1.15,2013-09-16 07:10:00,
2013-09-16 01:20:00,41.9,40.6,30.04,West,264,0.0,0.0,95,0.00,,,0.00,0,Wunderground v.1.15,2013-09-16 07:20:00,
2013-09-16 01:31:00,41.5,40.2,30.04,West,264,0.0,0.0,95,0.00,,,0.00,0,Wunderground v.1.15,2013-09-16 07:31:00,
2013-09-16 01:40:00,41.3,40.0,30.04,West,264,0.0,0.0,95,0.00,,,0.00,0,Wunderground v.1.15,2013-09-16 07:40:00,
2013-09-16 01:50:00,41.3,40.0,30.04,West,265,1.0,1.0,95,0.00,,,0.00,0,Wunderground v.1.15,2013-09-16 07:50:00,
2013-09-16 02:00:00,41.0,39.7,30.04,West,264,0.0,0.0,95,0.00,,,0.00,0,Wunderground v.1.15,2013-09-16 08:00:00,
2013-09-16 02:10:00,41.2,39.9,30.04,West,265,0.0,0.0,95,0.00,,,0.00,0,Wunderground v.1.15,2013-09-16 08:10:00,
2013-09-16 02:21:00,41.6,40.3,30.04,West,265,0.0,0.0,95,0.00,,,0.00,0,Wunderground v.1.15,2013-09-16 08:21:00,
2013-09-16 02:30:00,41.7,40.4,30.04,West,265,0.0,0.0,95,0.00,,,0.00,0,Wunderground v.1.15,2013-09-16 08:30:00,
2013-09-16 02:41:00,41.7,40.4,30.04,West,265,0.0,0.0,95,0.00,,,0.00,0,Wunderground v.1.15,2013-09-16 08:41:00,
2013-09-16 02:50:00,42.3,41.2,30.04,West,265,0.0,0.0,96,0.00,,,0.00,0,Wunderground v.1.15,2013-09-16 08:50:00,
2013-09-16 03:10:00,43.5,42.4,30.04,West,263,0.0,1.0,96,0.00,,,0.00,0,Wunderground v.1.15,2013-09-16 09:10:00,
2013-09-16 03:20:00,44.4,43.3,30.04,West,274,3.0,6.0,96,0.00,,,0.00,0,Wunderground v.1.15,2013-09-16 09:20:00,
2013-09-16 03:30:00,45.5,44.2,30.04,SW,229,5.0,5.0,95,0.00,,,0.00,0,Wunderground v.1.15,2013-09-16 09:30:00,
2013-09-16 03:50:00,46.1,43.3,30.03,West,259,1.0,1.0,90,0.00,,,0.00,0,Wunderground v.1.15,2013-09-16 09:50:00,
2013-09-16 04:11:00,44.1,41.6,30.03,West,274,2.0,4.0,91,0.00,,,0.00,0,Wunderground v.1.15,2013-09-16 10:11:00,
2013-09-16 04:20:00,44.0,42.1,30.04,SW,227,4.0,4.0,93,0.00,,,0.00,0,Wunderground v.1.15,2013-09-16 10:20:00,
2013-09-16 04:40:00,44.7,41.9,30.04,SW,233,0.0,1.0,90,0.00,,,0.00,0,Wunderground v.1.15,2013-09-16 10:40:00,
2013-09-16 04:50:00,44.1,41.9,30.04,West,263,1.0,1.0,92,0.00,,,0.00,0,Wunderground v.1.15,2013-09-16 10:50:00,
2013-09-16 05:01:00,43.9,41.7,30.04,West,263,0.0,0.0,92,0.00,,,0.00,0,Wunderground v.1.15,2013-09-16 11:01:00,
2013-09-16 05:10:00,43.3,41.1,30.04,West,270,0.0,0.0,92,0.00,,,0.00,0,Wunderground v.1.15,2013-09-16 11:10:00,
2013-09-16 05:21:00,42.5,40.3,30.05,West,270,0.0,0.0,92,0.00,,,0.00,0,Wunderground v.1.15,2013-09-16 11:21:00,
2013-09-16 05:30:00,42.2,40.3,30.05,West,270,0.0,0.0,93,0.00,,,0.00,0,Wunderground v.1.15,2013-09-16 11:30:00,
2013-09-16 05:40:00,41.9,40.0,30.05,West,270,0.0,0.0,93,0.00,,,0.00,0,Wunderground v.1.15,2013-09-16 11:40:00,
2013-09-16 05:50:00,41.6,40.0,30.05,West,271,0.0,0.0,94,0.00,,,0.00,0,Wunderground v.1.15,2013-09-16 11:50:00,
2013-09-16 06:00:00,41.6,40.0,30.05,WNW,284,2.0,3.0,94,0.00,,,0.00,0,Wunderground v.1.15,2013-09-16 12:00:00,
2013-09-16 06:11:00,41.3,39.7,30.05,WNW,284,3.0,3.0,94,0.00,,,0.00,0,Wunderground v.1.15,2013-09-16 12:11:00,
2013-09-16 06:21:00,41.0,41.0,30.05,WNW,284,2.0,3.0,100,0.00,,,0.00,0,Wunderground v.1.15,2013-09-16 12:21:00,
2013-09-16 06:30:00,41.1,39.5,30.05,West,268,3.0,4.0,94,0.00,,,0.00,0,Wunderground v.1.15,2013-09-16 12:30:00,
2013-09-16 06:41:00,41.5,40.2,30.06,West,266,3.0,3.0,95,0.00,,,0.00,0,Wunderground v.1.15,2013-09-16 12:41:00,
2013-09-16 06:51:00,41.6,40.3,30.05,West,266,0.0,0.0,95,0.00,,,0.01,7,Wunderground v.1.15,2013-09-16 12:51:00,
2013-09-16 07:00:00,41.7,40.4,30.06,West,267,0.0,0.0,95,0.00,,,0.01,7,Wunderground v.1.15,2013-09-16 13:00:00,
2013-09-16 07:11:00,41.5,39.9,30.06,WNW,285,0.0,0.0,94,0.00,,,0.01,30,Wunderground v.1.15,2013-09-16 13:11:00,
2013-09-16 07:20:00,42.0,40.7,30.06,WNW,285,2.0,2.0,95,0.00,,,0.01,70,Wunderground v.1.15,2013-09-16 13:20:00,
2013-09-16 07:31:00,43.2,41.9,30.06,WNW,285,0.0,0.0,95,0.00,,,0.01,111,Wunderground v.1.15,2013-09-16 13:31:00,
2013-09-16 07:40:00,45.0,43.7,30.06,NNE,28,1.0,1.0,95,0.00,,,0.01,144,Wunderground v.1.15,2013-09-16 13:40:00,
2013-09-16 07:50:00,46.6,45.0,30.06,NNE,13,1.0,1.0,94,0.00,,,0.01,183,Wunderground v.1.15,2013-09-16 13:50:00,
2013-09-16 08:00:00,47.4,44.6,30.06,North,5,1.0,1.0,90,0.00,,,0.01,211,Wunderground v.1.15,2013-09-16 14:00:00,
2013-09-16 08:10:00,48.7,45.6,30.05,North,10,0.0,0.0,89,0.00,,,0.01,258,Wunderground v.1.15,2013-09-16 14:10:00,
2013-09-16 08:21:00,50.4,46.7,30.05,NE,38,0.0,0.0,87,0.00,,,0.01,287,Wunderground v.1.15,2013-09-16 14:21:00,
2013-09-16 08:31:00,51.8,46.8,30.05,NE,38,0.0,0.0,83,0.00,,,0.01,316,Wunderground v.1.15,2013-09-16 14:31:00,
2013-09-16 08:40:00,52.6,47.3,30.05,NNE,15,1.0,1.0,82,0.00,,,0.01,353,Wunderground v.1.15,2013-09-16 14:40:00,
2013-09-16 08:50:00,53.2,47.8,30.05,North,355,0.0,0.0,82,0.00,,,0.01,390,Wunderground v.1.15,2013-09-16 14:50:00,
2013-09-16 09:10:00,57.2,50.1,30.04,East,97,3.0,5.0,77,0.00,,,0.01,446,Wunderground v.1.15,2013-09-16 15:10:00,
2013-09-16 09:20:00,58.5,50.2,30.04,ESE,112,3.0,4.0,74,0.00,,,0.01,506,Wunderground v.1.15,2013-09-16 15:20:00,
2013-09-16 09:30:00,58.3,48.9,30.02,SE,126,6.0,6.0,71,0.00,,,0.01,566,Wunderground v.1.15,2013-09-16 15:30:00,
2013-09-16 09:40:00,58.0,49.0,30.02,ESE,115,7.0,7.0,72,0.00,,,0.01,134,Wunderground v.1.15,2013-09-16 15:40:00,
2013-09-16 09:51:00,59.2,49.0,30.03,SE,129,4.0,4.0,69,0.00,,,0.01,682,Wunderground v.1.15,2013-09-16 15:51:00,
2013-09-16 10:01:00,60.7,51.2,30.02,SSE,152,7.0,7.0,71,0.00,,,0.01,715,Wunderground v.1.15,2013-09-16 16:01:00,
2013-09-16 10:20:00,59.0,48.1,30.02,North,350,6.0,8.0,67,0.00,,,0.01,394,Wunderground v.1.15,2013-09-16 16:20:00,
2013-09-16 10:30:00,59.3,48.3,30.02,WNW,284,6.0,6.0,67,0.00,,,0.02,700,Wunderground v.1.15,2013-09-16 16:30:00,
2013-09-16 10:40:00,60.7,50.1,30.02,WNW,299,3.0,7.0,68,0.00,,,0.02,780,Wunderground v.1.15,2013-09-16 16:40:00,
2013-09-16 10:50:00,60.1,50.3,30.02,South,188,6.0,6.0,70,0.00,,,0.02,770,Wunderground v.1.15,2013-09-16 16:50:00,
2013-09-16 11:00:00,60.7,49.3,30.02,South,172,4.0,4.0,66,0.00,,,0.02,884,Wunderground v.1.15,2013-09-16 17:00:00,
2013-09-16 11:10:00,61.5,49.2,30.01,NE,44,3.0,3.0,64,0.00,,,0.02,199,Wunderground v.1.15,2013-09-16 17:10:00,
2013-09-16 11:20:00,60.5,49.1,30.01,SW,234,7.0,7.0,66,0.00,,,0.02,364,Wunderground v.1.15,2013-09-16 17:20:00,
2013-09-16 11:30:00,59.6,48.6,30.01,ESE,114,5.0,5.0,67,0.00,,,0.02,250,Wunderground v.1.15,2013-09-16 17:30:00,
2013-09-16 11:40:00,59.1,49.7,30.01,WSW,248,5.0,9.0,71,0.00,,,0.02,258,Wunderground v.1.15,2013-09-16 17:40:00,
2013-09-16 11:51:00,60.6,50.4,30.00,WSW,250,4.0,5.0,69,0.00,,,0.02,974,Wunderground v.1.15,2013-09-16 17:51:00,
2013-09-16 12:00:00,61.7,47.2,30.00,South,188,7.0,7.0,59,0.00,,,0.02,244,Wunderground v.1.15,2013-09-16 18:00:00,
2013-09-16 12:10:00,61.3,49.0,29.99,West,260,7.0,7.0,64,0.00,,,0.02,939,Wunderground v.1.15,2013-09-16 18:10:00,
2013-09-16 12:21:00,62.9,51.0,29.98,WSW,237,5.0,7.0,65,0.00,,,0.02,1086,Wunderground v.1.15,2013-09-16 18:21:00,
2013-09-16 12:30:00,62.6,49.4,29.98,WSW,239,4.0,4.0,62,0.00,,,0.02,937,Wunderground v.1.15,2013-09-16 18:30:00,
2013-09-16 12:40:00,63.3,51.3,29.98,SE,141,1.0,1.0,65,0.00,,,0.02,972,Wunderground v.1.15,2013-09-16 18:40:00,
2013-09-16 12:50:00,64.2,50.5,29.97,NE,34,1.0,1.0,61,0.00,,,0.02,260,Wunderground v.1.15,2013-09-16 18:50:00,
2013-09-16 13:00:00,65.4,50.7,29.97,East,101,1.0,1.0,59,0.00,,,0.02,213,Wunderground v.1.15,2013-09-16 19:00:00,
2013-09-16 13:10:00,64.9,47.9,29.97,NW,319,7.0,7.0,54,0.00,,,0.02,990,Wunderground v.1.15,2013-09-16 19:10:00,
2013-09-16 13:21:00,64.8,48.2,29.96,WNW,286,7.0,20.0,55,0.00,,,0.02,926,Wunderground v.1.15,2013-09-16 19:21:00,
2013-09-16 13:31:00,64.7,48.2,29.96,WSW,251,8.0,8.0,55,0.00,,,0.02,874,Wunderground v.1.15,2013-09-16 19:31:00,
2013-09-16 13:40:00,65.1,48.5,29.94,WNW,302,7.0,9.0,55,0.00,,,0.02,156,Wunderground v.1.15,2013-09-16 19:40:00,
2013-09-16 13:50:00,65.0,49.9,29.94,West,280,9.0,13.0,58,0.00,,,0.02,575,Wunderground v.1.15,2013-09-16 19:50:00,
2013-09-16 14:00:00,64.8,46.2,29.94,SW,232,10.0,11.0,51,0.00,,,0.02,84,Wunderground v.1.15,2013-09-16 20:00:00,
2013-09-16 14:20:00,64.8,45.7,29.93,WNW,292,7.0,7.0,50,0.00,,,0.02,236,Wunderground v.1.15,2013-09-16 20:20:00,
2013-09-16 14:40:00,65.0,46.4,29.94,West,270,6.0,9.0,51,0.00,,,0.02,153,Wunderground v.1.15,2013-09-16 20:40:00,
2013-09-16 14:50:00,65.0,47.9,29.93,NNE,24,7.0,7.0,54,0.00,,,0.02,81,Wunderground v.1.15,2013-09-16 20:50:00,
2013-09-16 15:01:00,63.9,46.4,29.94,WSW,258,4.0,4.0,53,0.00,,,0.02,272,Wunderground v.1.15,2013-09-16 21:01:00,
2013-09-16 15:10:00,63.9,46.9,29.92,WSW,238,6.0,12.0,54,0.00,,,0.02,144,Wunderground v.1.15,2013-09-16 21:10:00,
2013-09-16 15:21:00,65.3,46.7,29.92,SW,231,6.0,6.0,51,0.00,,,0.02,657,Wunderground v.1.15,2013-09-16 21:21:00,
2013-09-16 15:30:00,64.7,46.7,29.91,NNW,332,8.0,8.0,52,0.00,,,0.02,689,Wunderground v.1.15,2013-09-16 21:30:00,
2013-09-16 15:40:00,65.8,47.2,29.90,WNW,293,6.0,6.0,51,0.00,,,0.02,125,Wunderground v.1.15,2013-09-16 21:40:00,
2013-09-16 15:51:00,64.9,46.8,29.90,WSW,256,9.0,9.0,52,0.00,,,0.02,649,Wunderground v.1.15,2013-09-16 21:51:00,
2013-09-16 16:00:00,65.0,46.4,29.90,West,270,8.0,8.0,51,0.00,,,0.02,448,Wunderground v.1.15,2013-09-16 22:00:00,
2013-09-16 16:10:00,64.6,46.1,29.90,West,273,10.0,18.0,51,0.00,,,0.02,42,Wunderground v.1.15,2013-09-16 22:10:00,
2013-09-16 16:20:00,64.8,45.2,29.90,NW,304,9.0,9.0,49,0.00,,,0.02,403,Wunderground v.1.15,2013-09-16 22:20:00,
2013-09-16 16:40:00,63.2,44.8,29.90,NW,318,8.0,12.0,51,0.00,,,0.02,60,Wunderground v.1.15,2013-09-16 22:40:00,
2013-09-16 16:50:00,63.2,43.7,29.90,SW,229,8.0,8.0,49,0.00,,,0.02,49,Wunderground v.1.15,2013-09-16 22:50:00,
2013-09-16 17:01:00,62.6,43.2,29.91,SW,217,6.0,6.0,49,0.00,,,0.02,127,Wunderground v.1.15,2013-09-16 23:01:00,
2013-09-16 17:10:00,63.7,44.7,29.90,NNW,333,2.0,6.0,50,0.00,,,0.02,385,Wunderground v.1.15,2013-09-16 23:10:00,
2013-09-16 17:40:00,62.3,47.3,29.90,NW,320,1.0,1.0,58,0.00,,,0.02,153,Wunderground v.1.15,2013-09-16 23:40:00,
2013-09-16 17:50:00,59.9,46.0,29.90,North,355,2.0,2.0,60,0.00,,,0.02,23,Wunderground v.1.15,2013-09-16 23:50:00,
2013-09-16 18:20:00,56.1,46.8,29.89,West,281,1.0,1.0,71,0.00,,,0.02,16,Wunderground v.1.15,2013-09-17 00:20:00,
2013-09-16 18:30:00,53.4,46.0,29.89,WNW,284,2.0,6.0,76,0.00,,,0.02,12,Wunderground v.1.15,2013-09-17 00:30:00,
2013-09-16 19:00:00,50.5,45.2,29.89,West,275,1.0,1.0,82,0.00,,,0.02,0,Wunderground v.1.15,2013-09-17 01:00:00,
2013-09-16 19:10:00,49.6,44.6,29.88,West,278,1.0,1.0,83,0.00,,,0.02,0,Wunderground v.1.15,2013-09-17 01:10:00,
2013-09-16 19:20:00,49.1,44.8,29.89,WNW,296,2.0,3.0,85,0.00,,,0.02,0,Wunderground v.1.15,2013-09-17 01:20:00,
2013-09-16 19:40:00,48.1,43.8,29.88,West,279,1.0,1.0,85,0.00,,,0.02,0,Wunderground v.1.15,2013-09-17 01:40:00,
2013-09-16 19:50:00,47.9,43.6,29.89,West,267,2.0,3.0,85,0.00,,,0.02,0,Wunderground v.1.15,2013-09-17 01:50:00,
2013-09-16 20:20:00,47.2,43.2,29.90,WNW,284,2.0,3.0,86,0.00,,,0.02,0,Wunderground v.1.15,2013-09-17 02:20:00,
2013-09-16 20:30:00,47.0,43.0,29.90,WSW,251,4.0,6.0,86,0.00,,,0.02,0,Wunderground v.1.15,2013-09-17 02:30:00,
2013-09-16 21:00:00,48.3,43.4,29.91,West,265,6.0,6.0,83,0.00,,,0.02,0,Wunderground v.1.15,2013-09-17 03:00:00,
2013-09-16 21:10:00,48.9,43.0,29.91,West,259,6.0,7.0,80,0.00,,,0.02,0,Wunderground v.1.15,2013-09-17 03:10:00,
2013-09-16 21:40:00,51.0,42.6,29.92,WSW,257,8.0,12.0,73,0.00,,,0.02,0,Wunderground v.1.15,2013-09-17 03:40:00,
2013-09-16 21:50:00,53.2,42.9,29.91,West,263,9.0,9.0,68,0.00,,,0.02,0,Wunderground v.1.15,2013-09-17 03:50:00,
2013-09-16 22:00:00,54.6,42.7,29.91,WSW,253,10.0,10.0,64,0.00,,,0.02,0,Wunderground v.1.15,2013-09-17 04:00:00,
2013-09-16 22:20:00,55.0,42.6,29.91,WSW,242,9.0,9.0,63,0.00,,,0.02,0,Wunderground v.1.15,2013-09-17 04:20:00,
2013-09-16 22:30:00,55.7,42.9,29.92,West,263,10.0,10.0,62,0.00,,,0.02,0,Wunderground v.1.15,2013-09-17 04:30:00,
2013-09-16 22:50:00,55.2,42.8,29.92,West,277,8.0,8.0,63,0.00,,,0.02,0,Wunderground v.1.15,2013-09-17 04:50:00,
2013-09-16 23:00:00,55.0,43.0,29.92,WSW,254,8.0,8.0,64,0.00,,,0.02,0,Wunderground v.1.15,2013-09-17 05:00:00,
2013-09-16 23:30:00,55.5,42.7,29.91,West,263,9.0,9.0,62,0.00,,,0.02,0,Wunderground v.1.15,2013-09-17 05:30:00,
2013-09-16 23:40:00,55.9,43.1,29.91,West,261,9.0,10.0,62,0.00,,,0.02,0,Wunderground v.1.15,2013-09-17 05:40:00,